Weather History for Aspen, CO

Change the Weather History Date:

Wednesday, December 19, 2012

  Actual Average Record
Temperature  
Mean Temperature 11 °F 19 °F  
Max Temperature 28 °F 31 °F 50 °F (1980)
Min Temperature -6 °F 7 °F -6 °F (1992)
Degree Days  
Heating Degree Days 54 46  
Month to date heating degree days 750 846  
Since 1 July heating degree days 2642 3172  
Cooling Degree Days 0 0  
Month to date cooling degree days 0 0  
Year to date cooling degree days 106 39  
Moisture  
Dew Point 11 °F    
Average Humidity 69    
Maximum Humidity 92    
Minimum Humidity 46    
Precipitation  
Precipitation 0.18 in 0.04 in 0.52 in (1990)
Month to date precipitation 0.51 0.66  
Year to date precipitation 12.25 16.78  
Sea Level Pressure  
Sea Level Pressure 29.71 in    
Wind  
Wind Speed 8 mph (NNW)    
Max Wind Speed 37 mph    
Max Gust Speed 48 mph    
Visibility 3 miles    
Events Fog , Snow    
T = Trace of Precipitation, MM = Missing Value Source: NWS Daily Summary

Daily Weather History Graph

Daily Weather History Graph

Search for Another Location

Airport:

Trip Planner

Search our weather history database for the weather conditions in past years. The results will help you decide how hot, cold, wet, or windy it might be!

Date:

Astronomy

Dec. 19, 2012 Rise Set
Actual Time 7:22 AM MST 4:47 PM MST
Civil Twilight 6:52 AM MST 5:17 PM MST
Nautical Twilight 6:18 AM MST 5:51 PM MST
Astronomical Twilight 5:46 AM MST 6:23 PM MST
Moon 11:35 AM MST (12/19) No Moon Set
Length of Visible Light 10h 24m
Length of Day
9h 24m
Waxing Crescent, 45% of the Moon is Illuminated
Dec 19
Waxing Crescent
Dec 19
First Quarter
Dec 28
Full
Jan 4
Last Quarter
Jan 11
New

Hourly Weather History & Observations

Time (MST) Temp. Windchill Dew Point Humidity Pressure Visibility Wind Dir Wind Speed Gust Speed Precip Events Conditions
12:12 AM 28.4 °F 22.2 °F 24.8 °F 86% 29.47 in 2.5 mi SE 5.8 mph - 0.01 in Snow Light Snow
12:23 AM 28.4 °F 22.2 °F 24.8 °F 86% 29.47 in 2.5 mi South 5.8 mph - 0.01 in Snow Light Snow
12:28 AM 28.4 °F 21.2 °F 24.8 °F 86% 29.47 in 3.0 mi South 6.9 mph - 0.01 in Snow Light Snow
12:34 AM 28.4 °F 18.5 °F 23.0 °F 80% 29.47 in 2.5 mi SSE 11.5 mph - 0.01 in Snow Light Snow
12:40 AM 28.4 °F 20.4 °F 24.8 °F 86% 29.47 in 1.2 mi SSE 8.1 mph - 0.01 in Snow Light Snow
12:53 AM 27.0 °F 19.5 °F 25.0 °F 92% 29.37 in 1.0 mi SSE 6.9 mph - 0.01 in Snow Light Snow
1:53 AM 28.0 °F 18.6 °F 25.0 °F 88% 29.33 in 1.2 mi South 10.4 mph - 0.01 in Snow Light Snow
2:04 AM 28.4 °F 19.7 °F 24.8 °F 86% 29.42 in 3.0 mi South 9.2 mph - 0.00 in Snow Light Snow
2:39 AM 28.4 °F 19.7 °F 24.8 °F 86% 29.41 in 1.8 mi SSE 9.2 mph - 0.00 in Snow Light Snow
2:51 AM 28.4 °F 20.4 °F 24.8 °F 86% 29.40 in 3.0 mi SSE 8.1 mph - 0.00 in Snow Light Snow
2:53 AM 28.0 °F 19.3 °F 24.1 °F 85% 29.31 in 3.0 mi SSE 9.2 mph - 0.00 in Snow Light Snow
2:59 AM 28.4 °F 20.4 °F 24.8 °F 86% 29.40 in 1.8 mi SSE 8.1 mph - 0.00 in Snow Light Snow
3:20 AM 26.6 °F 18.2 °F 24.8 °F 93% 29.40 in 1.0 mi SSE 8.1 mph - 0.01 in Snow Light Snow
3:34 AM 21.2 °F 3.9 °F 17.6 °F 86% 29.44 in 0.8 mi NW 26.5 mph 41.4 mph 0.01 in Snow Light Snow
3:39 AM 17.6 °F 0.1 °F 14.0 °F 86% 29.46 in 0.2 mi NNW 23.0 mph 48.3 mph 0.01 in Fog , Snow Heavy Snow
3:53 AM 17.1 °F 3.6 °F 14.0 °F 88% 29.47 in 0.2 mi North 12.7 mph 32.2 mph 0.01 in Fog , Snow Heavy Snow
4:01 AM 17.6 °F 7.3 °F 14.0 °F 86% 29.50 in 0.2 mi NNE 8.1 mph 18.4 mph 0.01 in Fog , Snow Heavy Snow
4:34 AM 17.6 °F - 14.0 °F 86% 29.51 in 1.0 mi Calm Calm - 0.08 in Snow Light Snow
4:42 AM 17.6 °F - 14.0 °F 86% 29.51 in 1.5 mi Calm Calm - 0.09 in Snow Light Snow
5:11 AM 17.6 °F 10.7 °F 14.0 °F 86% 29.52 in 1.2 mi NNW 4.6 mph - 0.00 in Snow Light Snow
5:33 AM 17.6 °F 12.3 °F 12.2 °F 79% 29.52 in 1.5 mi NNW 3.5 mph - 0.01 in Snow Light Snow
5:51 AM 15.8 °F 8.6 °F 12.2 °F 86% 29.52 in 1.0 mi North 4.6 mph - 0.02 in Snow Light Snow
5:53 AM 16.0 °F 10.4 °F 12.9 °F 88% 29.51 in 1.0 mi North 3.5 mph - 0.02 in Snow Light Snow
6:44 AM 15.8 °F 6.1 °F 12.2 °F 86% 29.53 in 1.5 mi NNE 6.9 mph - 0.01 in Snow Light Snow
6:53 AM 15.1 °F 3.3 °F 10.9 °F 84% 29.55 in 1.8 mi North 9.2 mph - 0.01 in Snow Light Snow
7:53 AM 12.9 °F 3.8 °F 9.0 °F 84% 29.59 in 1.0 mi North 5.8 mph - 0.00 in Snow Light Snow
8:53 AM 12.9 °F 1.6 °F 9.0 °F 84% 29.63 in 1.0 mi North 8.1 mph - 0.00 in Snow Light Snow
9:43 AM 12.2 °F -0.2 °F 8.6 °F 85% 29.66 in 0.8 mi North 9.2 mph - 0.01 in Snow Light Snow
9:53 AM 12.9 °F -0.2 °F 9.0 °F 84% 29.69 in 0.8 mi North 10.4 mph - 0.01 in Snow Light Snow
10:53 AM 12.9 °F -0.2 °F 9.0 °F 84% 29.75 in 0.8 mi North 10.4 mph - 0.00 in Snow Light Snow
11:31 AM 14.0 °F 1.2 °F 8.6 °F 79% 29.74 in 1.0 mi NNW 10.4 mph 18.4 mph 0.01 in Snow Light Snow
11:49 AM 15.8 °F 4.2 °F 8.6 °F 73% 29.74 in 2.0 mi North 9.2 mph - 0.01 in Snow Light Snow
11:53 AM 15.1 °F 2.5 °F 7.0 °F 70% 29.76 in 2.5 mi North 10.4 mph 16.1 mph 0.01 in Snow Light Snow
12:06 PM 15.8 °F 2.1 °F 8.6 °F 73% 29.75 in 3.0 mi North 12.7 mph 16.1 mph 0.00 in Snow Light Snow
12:49 PM 15.8 °F 4.2 °F 8.6 °F 73% 29.79 in 1.8 mi NNW 9.2 mph 21.9 mph 0.00 in Snow Light Snow
12:53 PM 16.0 °F 3.6 °F 8.1 °F 71% 29.81 in 2.0 mi NNW 10.4 mph 21.9 mph 0.00 in Snow Light Snow
1:09 PM 15.8 °F 6.1 °F 6.8 °F 68% 29.79 in 3.0 mi NW 6.9 mph 17.3 mph 0.00 in Snow Light Snow
1:53 PM 15.1 °F 3.3 °F 7.0 °F 70% 29.85 in 3.0 mi NW 9.2 mph 17.3 mph 0.00 in Snow Light Snow
2:14 PM 15.8 °F 3.4 °F 6.8 °F 68% 29.84 in 2.5 mi NW 10.4 mph 19.6 mph 0.00 in Snow Light Snow
2:41 PM 15.8 °F 7.2 °F 6.8 °F 68% 29.86 in 3.0 mi Variable 5.8 mph 18.4 mph 0.00 in   Mostly Cloudy
2:53 PM 15.1 °F 1.8 °F 7.0 °F 70% 29.91 in 3.0 mi NNW 11.5 mph 19.6 mph 0.00 in   Overcast
3:53 PM 16.0 °F 4.4 °F 5.0 °F 62% 30.01 in 7.0 mi NNW 9.2 mph 19.6 mph 0.00 in   Mostly Cloudy
4:53 PM 12.9 °F -3.4 °F -5.1 °F 45% 30.07 in 10.0 mi NNW 16.1 mph 21.9 mph 0.00 in   Scattered Clouds
5:53 PM 7.0 °F -1.7 °F -5.1 °F 58% 30.20 in 10.0 mi North 4.6 mph - N/A   Clear
6:53 PM 1.0 °F - -6.0 °F 72% 30.29 in 10.0 mi Calm Calm - N/A   Clear
7:53 PM -0.9 °F -11.0 °F -9.0 °F 69% 30.38 in 10.0 mi SW 4.6 mph - N/A   Clear
8:53 PM -4.0 °F -16.3 °F -9.9 °F 76% 30.42 in 10.0 mi SSW 5.8 mph - N/A   Clear
9:53 PM -5.1 °F -20.4 °F -11.0 °F 76% 30.47 in 10.0 mi SSW 8.1 mph - N/A   Clear
10:53 PM -2.9 °F -16.5 °F -11.0 °F 68% 30.50 in 10.0 mi SSW 6.9 mph - N/A   Clear
11:53 PM -4.0 °F -16.3 °F -13.0 °F 65% 30.51 in 10.0 mi South 5.8 mph - N/A   Clear